Torna al catalogo

CZ-4C SEP MOTOR COVER

AttivoSSO
NORAD 49024·DEBRIS·🇨🇳 China
Questo nome del satellite non è ancora stato confermato da fonti ufficiali.

Lanciato Jul 4, 2021 da Jiuquan Satellite Launch Center

Loading…

Prossimi Passaggi (prossime 24 ore)

TLE

AggiornatoSource: Space-Track

Epoca: Sep 13, 2026, 06:33 UTC

1 49024U 21062D   26256.27298771  .00000195  00000-0  93340-4 0  9992
2 49024  98.6587 277.3572 0005391 146.9554 213.1965 14.29586710270019

Traccia CZ-4C SEP MOTOR COVER in tempo reale con AllMySat

Download on the App Store